South Lake Tahoe, CA

8:31 AM PDT on October 23, 2017 (GMT -0700)
Lake Tahoe

Weather History for KTVL - February, 2011

Change the Weather History Date:

Saturday, February 19, 2011

  Actual Average Record
Temperature  
Mean Temperature 17 °F 31 °F  
Max Temperature 32 °F 45 °F 62 °F (1977)
Min Temperature 2 °F 18 °F -8 °F (1990)
Degree Days  
Heating Degree Days 48 34  
Month to date heating degree days 630 658  
Since 1 July heating degree days 4417 4940  
Cooling Degree Days 0 0  
Month to date cooling degree days 0 0  
Year to date cooling degree days 0 0  
Moisture  
Dew Point 19 °F    
Average Humidity 75    
Maximum Humidity 96    
Minimum Humidity 53    
Precipitation  
Precipitation 0.30 in - 3.34 in (1986)
Month to date precipitation 1.69  
Year to date precipitation 2.11  
Sea Level Pressure  
Sea Level Pressure 29.59 in    
Wind  
Wind Speed 7 mph (South)    
Max Wind Speed 20 mph    
Max Gust Speed 26 mph    
Visibility 4 miles    
Events Fog , Snow    
T = Trace of Precipitation, MM = Missing Value Source: NWS Daily Summary

Daily Weather History Graph

Daily Weather History Graph

Search for Another Location

Airport or City:

Trip Planner

Search our weather history database for the weather conditions in past years. The results will help you decide how hot, cold, wet, or windy it might be!

Date:

Astronomy

Feb. 19, 2011 Rise Set
Actual Time 6:46 AM PST 5:41 PM PST
Civil Twilight 6:19 AM PST 6:08 PM PST
Nautical Twilight 5:48 AM PST 6:40 PM PST
Astronomical Twilight 5:17 AM PST 7:10 PM PST
Moon 7:53 PM PST (2/19) 7:13 AM PST (2/19)
Length of Visible Light 11h 49m
Length of Day
10h 55m
Full, 97% of the Moon is Illuminated
Feb 19
Full
Feb 24
Last Quarter
Mar 4
New
Mar 12
First Quarter
Mar 19
Full

Hourly Weather History & Observations

Time (PST) Temp. Windchill Dew Point Humidity Pressure Visibility Wind Dir Wind Speed Gust Speed Precip Events Conditions
12:01 AM 32.0 °F 28.7 °F 28.4 °F 87% 29.48 in 1.0 mi SSW 3.5 mph - 0.00 in Snow Light Snow
12:06 AM 30.2 °F 23.4 °F 28.4 °F 93% 29.48 in 0.8 mi SSW 6.9 mph - 0.00 in Snow Light Snow
12:42 AM 30.2 °F 23.4 °F 28.4 °F 93% 29.48 in 0.8 mi South 6.9 mph - 0.03 in Snow Light Snow
12:53 AM 30.9 °F 25.2 °F 28.0 °F 89% 29.45 in 0.8 mi SSW 5.8 mph - 0.05 in Snow Light Snow
1:23 AM 30.2 °F 19.8 °F 26.6 °F 86% 29.48 in 1.0 mi South 13.8 mph 19.6 mph 0.02 in Snow Light Snow
1:36 AM 30.2 °F 19.8 °F 26.6 °F 86% 29.48 in 0.8 mi South 13.8 mph 18.4 mph 0.03 in Snow Light Snow
1:44 AM 30.2 °F 20.8 °F 24.8 °F 80% 29.48 in 1.2 mi South 11.5 mph - 0.03 in Snow Light Snow
1:53 AM 30.0 °F 20.5 °F 25.0 °F 82% 29.45 in 1.2 mi South 11.5 mph - 0.03 in Snow Light Snow
2:01 AM 28.4 °F 21.2 °F 24.8 °F 86% 29.46 in 2.0 mi SSW 6.9 mph - 0.00 in Snow Light Snow
2:08 AM 28.4 °F 21.2 °F 23.0 °F 80% 29.46 in 5.0 mi SSW 6.9 mph - 0.00 in Snow Light Snow
2:10 AM 28.4 °F 21.2 °F 23.0 °F 80% 29.46 in 7.0 mi SSW 6.9 mph - 0.00 in Snow Light Snow
2:27 AM 28.4 °F 19.1 °F 24.8 °F 86% 29.46 in 7.0 mi SSW 10.4 mph - 0.00 in Snow Light Snow
2:49 AM 30.2 °F 21.3 °F 24.8 °F 80% 29.44 in 3.0 mi SSW 10.4 mph - 0.00 in Snow Light Snow
2:53 AM 30.0 °F 20.0 °F 23.0 °F 75% 29.42 in 2.5 mi South 12.7 mph - 0.00 in Snow Light Snow
3:04 AM 28.4 °F 19.1 °F 24.8 °F 86% 29.44 in 1.8 mi South 10.4 mph 23.0 mph 0.00 in Snow Light Snow
3:08 AM 28.4 °F 18.0 °F 24.8 °F 86% 29.44 in 3.0 mi South 12.7 mph - 0.00 in Snow Light Snow
3:12 AM 28.4 °F 18.5 °F 24.8 °F 86% 29.44 in 1.8 mi SSE 11.5 mph 19.6 mph 0.00 in Snow Light Snow
3:16 AM 28.4 °F 18.5 °F 24.8 °F 86% 29.44 in 0.8 mi South 11.5 mph 25.3 mph 0.00 in Snow Light Snow
3:20 AM 28.4 °F 17.0 °F 24.8 °F 86% 29.44 in 0.5 mi South 15.0 mph 25.3 mph 0.00 in Fog , Snow Snow
3:43 AM 28.4 °F 19.1 °F 24.8 °F 86% 29.44 in 0.5 mi South 10.4 mph 20.7 mph 0.01 in Fog , Snow Snow
3:53 AM 28.4 °F 19.1 °F 24.8 °F 86% 29.44 in 0.5 mi SSW 10.4 mph - N/A Fog , Snow Snow
4:53 AM 28.0 °F 22.8 °F 25.0 °F 88% 29.44 in 0.2 mi SW 4.6 mph - 0.11 in Fog , Snow Heavy Snow
5:53 AM 27.0 °F 18.7 °F 23.0 °F 85% 29.46 in 0.8 mi South 8.1 mph - 0.07 in Snow Light Snow
6:25 AM 26.6 °F 19.1 °F 21.2 °F 80% 29.50 in 1.0 mi SSW 6.9 mph - 0.01 in Snow Light Snow
6:40 AM 26.6 °F 18.2 °F 21.2 °F 80% 29.51 in 1.5 mi South 8.1 mph - 0.01 in Snow Light Snow
6:53 AM 25.0 °F 16.3 °F 21.0 °F 85% 29.52 in 1.5 mi South 8.1 mph - 0.02 in Snow Light Snow
6:56 AM 24.8 °F 16.1 °F 19.4 °F 80% 29.53 in 2.0 mi South 8.1 mph - 0.00 in Snow Light Snow
7:09 AM 24.8 °F 14.6 °F 19.4 °F 80% 29.53 in 1.2 mi South 10.4 mph - 0.00 in Snow Light Snow
7:27 AM 24.8 °F 14.6 °F 19.4 °F 80% 29.55 in 0.8 mi South 10.4 mph - 0.00 in Snow Light Snow
7:53 AM 24.1 °F 14.4 °F 19.9 °F 84% 29.59 in 0.8 mi SSW 9.2 mph - 0.00 in Snow Light Snow
8:04 AM 24.8 °F 13.4 °F 19.4 °F 80% 29.58 in 1.8 mi South 12.7 mph - 0.00 in Snow Light Snow
8:11 AM 24.8 °F 14.6 °F 17.6 °F 74% 29.59 in 2.0 mi South 10.4 mph - 0.00 in Snow Light Snow
8:22 AM 24.8 °F 15.3 °F 19.4 °F 80% 29.59 in 1.8 mi SSW 9.2 mph - 0.00 in Snow Light Snow
8:28 AM 24.8 °F 14.6 °F 17.6 °F 74% 29.59 in 2.0 mi South 10.4 mph - 0.00 in Snow Light Snow
8:36 AM 24.8 °F 14.0 °F 17.6 °F 74% 29.58 in 5.0 mi South 11.5 mph - 0.00 in   Haze
8:53 AM 24.1 °F 13.7 °F 18.0 °F 77% 29.60 in 10.0 mi South 10.4 mph - 0.00 in   Scattered Clouds
9:53 AM 25.0 °F 13.1 °F 15.1 °F 66% 29.61 in 10.0 mi South 13.8 mph 26.5 mph N/A   Partly Cloudy
10:53 AM 27.0 °F 18.0 °F 12.0 °F 53% 29.61 in 10.0 mi SSW 9.2 mph 20.7 mph N/A   Clear
11:53 AM 26.6 °F 20.0 °F 12.2 °F 55% 29.62 in 9.0 mi Variable 5.8 mph - N/A   Overcast
12:53 PM 30.0 °F 21.1 °F 15.1 °F 54% 29.60 in 10.0 mi South 10.4 mph - N/A   Overcast
1:36 PM 28.4 °F 24.6 °F 17.6 °F 64% 29.62 in 4.0 mi Variable 3.5 mph - 0.00 in Snow Light Snow
1:53 PM 27.0 °F 18.7 °F 17.1 °F 66% 29.63 in 9.0 mi South 8.1 mph - 0.00 in   Overcast
2:21 PM 26.6 °F 17.5 °F 17.6 °F 69% 29.63 in 10.0 mi South 9.2 mph - 0.00 in   Overcast
2:34 PM 26.6 °F 20.0 °F 17.6 °F 69% 29.64 in 2.5 mi South 5.8 mph - 0.00 in Snow Light Snow
2:37 PM 26.6 °F 20.0 °F 17.6 °F 69% 29.64 in 1.5 mi SSW 5.8 mph - 0.00 in Snow Light Snow
2:42 PM 26.6 °F 21.2 °F 17.6 °F 69% 29.64 in 0.8 mi SSW 4.6 mph - 0.00 in Snow Light Snow
2:49 PM 26.6 °F 21.2 °F 19.4 °F 74% 29.64 in 1.0 mi South 4.6 mph - 0.00 in Snow Light Snow
2:53 PM 26.1 °F 21.9 °F 19.0 °F 75% 29.66 in 2.0 mi South 3.5 mph - 0.00 in Snow Light Snow
3:15 PM 26.6 °F 20.0 °F 19.4 °F 74% 29.64 in 1.5 mi South 5.8 mph - 0.00 in Snow Light Snow
3:19 PM 26.6 °F 21.2 °F 19.4 °F 74% 29.64 in 3.0 mi Variable 4.6 mph - 0.00 in Snow Light Snow
3:21 PM 26.6 °F 21.2 °F 17.6 °F 69% 29.64 in 5.0 mi South 4.6 mph - 0.00 in Snow Light Snow
3:53 PM 24.1 °F 18.2 °F 15.1 °F 69% 29.68 in 10.0 mi Variable 4.6 mph - 0.00 in   Clear
4:53 PM 21.9 °F 13.4 °F 14.0 °F 72% 29.71 in 10.0 mi South 6.9 mph - N/A   Clear
5:53 PM 21.0 °F - 15.1 °F 78% 29.73 in 10.0 mi Calm Calm - N/A   Clear
6:53 PM 15.1 °F - 10.9 °F 84% 29.79 in 10.0 mi Calm Calm - N/A   Clear
7:53 PM 14.0 °F - 9.0 °F 80% 29.82 in 10.0 mi Calm Calm - N/A   Clear
8:02 PM 14.0 °F - 8.6 °F 79% 29.72 in 4.0 mi Calm Calm - N/A   Haze
8:10 PM 10.4 °F - 8.6 °F 92% 29.73 in 10.0 mi Calm Calm - N/A   Clear
8:51 PM 6.8 °F - 3.2 °F 85% 29.75 in 4.0 mi Calm Calm - N/A   Clear
8:53 PM 5.0 °F -4.1 °F 3.0 °F 92% 29.89 in 1.5 mi South 4.6 mph - N/A   Clear
9:04 PM 12.2 °F - 6.8 °F 79% 29.75 in 5.0 mi Calm Calm - N/A   Haze
9:53 PM 8.1 °F -2.0 °F 3.9 °F 83% 29.89 in 10.0 mi South 5.8 mph - N/A   Clear
10:53 PM 8.1 °F -2.0 °F 3.0 °F 80% 29.89 in 10.0 mi South 5.8 mph - N/A   Clear
11:53 PM 3.9 °F -5.3 °F -0.9 °F 80% 29.93 in 10.0 mi SSW 4.6 mph - N/A   Clear